Regional Weather Roundup
Issued by NWS

Home | Current Version | Previous Version | Text Only | Print | Product List | Glossary On
Versions: 1 2 3 4 5 6 7 8 9 10 11 12 13 14 15 16 17 18 19 20 21 22 23 24 25 26 27 28 29 30 31 32 33 34 35 36 37 38 39 40 41 42 43 44 45 46 47 48 49 50
000
ASUS43 KDTX 201610
RWRMI
MICHIGAN HOURLY REGIONAL WEATHER ROUNDUP
NATIONAL WEATHER SERVICE DETROIT/PONTIAC MI
ISSUED BY NATIONAL WEATHER SERVICE GRAND RAPIDS MI
1200 PM EDT SUN AUG 20 2017

NOTE: "FAIR" INDICATES FEW OR NO CLOUDS BELOW 12,000 FEET WITH NO
SIGNIFICANT WEATHER AND/OR OBSTRUCTION TO VISIBILITY.

MIZ047>049-052>055-059>063-066>070-074>076-081>083-201700-
SOUTHEAST LOWER MICHIGAN

CITY           SKY/WX    TMP DP  RH WIND       PRES   REMARKS
ADRIAN         SUNNY     77  62  59 W7        30.13R
ALMA           SUNNY     77  60  54 S7        30.10R
ANN ARBOR      SUNNY     80  62  54 SW10      30.11R
BAD AXE        SUNNY     77  60  56 SW7       30.09S
DETROIT CITY   SUNNY     80  61  52 SW10      30.11R
DETROIT        MOSUNNY   80  62  54 SW10      30.12R
FLINT          SUNNY     77  57  50 SW6       30.10R
GROSSE ILE     SUNNY     77  64  64 S6        30.10R
HILLSDALE      SUNNY     77  61  57 SW7       30.13R
HOWELL         SUNNY     78  59  51 SW7       30.11R

CITY           SKY/WX    TMP DP  RH WIND       PRES   REMARKS
JACKSON        SUNNY     79  58  48 SW10      30.11R
LANSING        SUNNY     79  54  41 W8        30.11R
MASON          SUNNY     80  60  49 S6        30.11R
MONROE         SUNNY     79  62  56 CALM      30.10S
MT. CLEMENS    MOSUNNY   80  64  57 S5        30.09R
PONTIAC        PTSUNNY   79  58  48 SW12      30.10R
PORT HOPE        N/A     79  63  57 VRB6      30.05S
PORT HURON     SUNNY     79  61  53 SW7       30.10R
TRI CITIES     SUNNY     77  63  61 SW9       30.09R
YPSILANTI      SUNNY     81  66  60 SW9       30.12R
$$
MIZ043>046-050>051-056>058-064>065-071>073-077>080-201700-
SOUTHWEST LOWER MICHIGAN

CITY           SKY/WX    TMP DP  RH WIND       PRES   REMARKS
BATTLE CREEK   CLOUDY    79  62  56 S10       30.11R
BENTON HARBOR  MOSUNNY   81  59  47 VRB6      30.08R
BIG RAPIDS     SUNNY     76  59  55 SW8       30.09R
COLDWATER      SUNNY     79  59  49 S7        30.11R
HOLLAND        MOSUNNY   79  61  53 SW8       30.09R
GRAND RAPIDS   CLOUDY    78  56  46 SW7       30.09R
KALAMAZOO      SUNNY     81  59  47 S9        30.10R
MARSHALL       CLOUDY    80  58  48 SW7       30.11R
MOUNT PLEASANT SUNNY     81  58  45 SW8       30.08R
MUSKEGON       CLOUDY    79  63  57 SW12      30.08R
STURGIS        SUNNY     79  62  57 S10       30.10S
$$
MIZ016>042-201700-
NORTHERN LOWER MICHIGAN

CITY           SKY/WX    TMP DP  RH WIND       PRES   REMARKS
ALPENA         SUNNY     79  64  60 SW7       30.03R
BEAVER ISLAND  SUNNY     76  63  64 SW10      30.01S
BELLAIRE       SUNNY     77  62  58 S6        30.03R
CADILLAC       SUNNY     78  60  54 SW10      30.08R
CHARLEVOIX     SUNNY     78  61  57 SW8       30.05R
GAYLORD        MOSUNNY   76  58  53 SW12      30.06R
HOUGHTON LAKE  SUNNY     77  63  61 SW7       30.07S
MANISTEE       CLOUDY    78  61  55 SW10      30.05R
OSCODA         SUNNY     82  60  46 W9        30.04S
PELLSTON       SUNNY     79  63  57 SW9       30.02R
TRAVERSE CITY  MOSUNNY   79  61  53 W10G17    30.02R
LUDINGTON      CLOUDY    76  64  66 SW14      30.06R
$$
MIZ007>008-015-201700-
EASTERN UPPER MICHIGAN

CITY           SKY/WX    TMP DP  RH WIND       PRES   REMARKS
KINROSS        SUNNY     76  67  73 VRB6      30.00S
MACKINAC ISLAN SUNNY     71  66  82 SW8G17    30.01R
NEWBERRY       SUNNY     74  68  83 S10       29.98S
S. S. MARIE    CLOUDY    69  65  86 E6        29.98F
$$
MIZ004>006-011>014-085-201700-
CENTRAL UPPER MICHIGAN

CITY           SKY/WX    TMP DP  RH WIND       PRES   REMARKS
MANISTIQUE     SUNNY     72  66  81 S7        29.99S
ESCANABA       SUNNY     75  64  68 S8        29.99R
MENOMINEE      CLOUDY    76  64  66 SW12      30.01R
SAWYER-GWINN   MOSUNNY   73  59  60 SW17G23   29.97S
$$
MIZ001>003-009>011-084-201700-
WESTERN UPPER MICHIGAN

CITY           SKY/WX    TMP DP  RH WIND       PRES   REMARKS
IRON MOUNTAIN  CLOUDY    77  60  55 S10G21    29.97S
HOUGHTON       MOSUNNY   79  64  61 SW16      29.89S
COPPER HARBOR    N/A     74  63  68 VRB6      29.87S
IRONWOOD       PTSUNNY   76  65  68 S12       29.89F
$$

ABBREVIATIONS USED IN REMARKS
   TC - TEMPERATURE IN CELSIUS
  WCI - WIND CHILL INDEX
   HX - HEAT INDEX
  VSB - VISIBILITY




USA.gov is the U.S. government's official web portal to all federal, state and local government web resources and services.